TimeEST,TemperatureF,Dew PointF,Humidity,Sea Level PressureIn,VisibilityMPH,Wind Direction,Wind SpeedMPH,Gust SpeedMPH,PrecipitationIn,Events,Conditions,WindDirDegrees,DateUTC
12:53 AM,34.0,33.1,96,30.32,10.0,Calm,Calm,-,N/A,,Clear,0,2012-11-14 05:53:00
1:53 AM,34.0,32.0,92,30.32,10.0,Calm,Calm,-,N/A,,Clear,0,2012-11-14 06:53:00
2:53 AM,37.9,34.0,86,30.32,10.0,Calm,Calm,-,N/A,,Clear,0,2012-11-14 07:53:00
3:53 AM,39.9,35.1,83,30.32,10.0,NE,5.8,-,N/A,,Clear,50,2012-11-14 08:53:00
4:53 AM,42.1,33.1,70,30.33,10.0,ENE,9.2,-,N/A,,Clear,60,2012-11-14 09:53:00
5:53 AM,42.1,30.9,65,30.35,10.0,ENE,6.9,-,N/A,,Clear,60,2012-11-14 10:53:00
6:53 AM,42.1,30.0,62,30.36,10.0,ENE,8.1,-,N/A,,Clear,70,2012-11-14 11:53:00
7:53 AM,43.0,32.0,65,30.38,10.0,ENE,12.7,-,N/A,,Scattered Clouds,70,2012-11-14 12:53:00
8:53 AM,44.1,32.0,63,30.40,10.0,ENE,13.8,20.7,N/A,,Mostly Cloudy,60,2012-11-14 13:53:00
9:53 AM,46.9,30.9,54,30.40,10.0,ENE,16.1,24.2,N/A,,Overcast,60,2012-11-14 14:53:00
10:53 AM,48.0,30.0,50,30.39,10.0,East,12.7,-,N/A,,Scattered Clouds,80,2012-11-14 15:53:00
11:53 AM,48.9,30.9,50,30.35,10.0,East,10.4,20.7,N/A,,Clear,100,2012-11-14 16:53:00
12:28 PM,50.0,32.0,50,30.32,10.0,East,11.5,-,N/A,,Overcast,80,2012-11-14 17:28:00
12:53 PM,50.0,33.1,52,30.34,10.0,NE,8.1,-,N/A,,Overcast,50,2012-11-14 17:53:00
1:03 PM,50.0,33.8,54,30.32,10.0,NE,8.1,-,N/A,,Overcast,50,2012-11-14 18:03:00
1:53 PM,51.1,33.1,50,30.31,10.0,NE,8.1,-,N/A,,Overcast,40,2012-11-14 18:53:00
2:00 PM,51.8,33.8,50,30.30,10.0,NE,6.9,-,N/A,,Overcast,40,2012-11-14 19:00:00
2:53 PM,52.0,33.1,49,30.29,10.0,NE,8.1,-,N/A,,Overcast,50,2012-11-14 19:53:00
3:53 PM,51.1,33.1,50,30.29,10.0,ENE,9.2,-,N/A,,Overcast,60,2012-11-14 20:53:00
4:53 PM,51.1,33.1,50,30.28,10.0,ENE,8.1,-,N/A,,Overcast,70,2012-11-14 21:53:00
5:53 PM,51.1,33.1,50,30.28,10.0,ENE,6.9,-,N/A,,Overcast,60,2012-11-14 22:53:00
6:53 PM,51.1,33.1,50,30.30,10.0,ENE,4.6,-,N/A,,Overcast,70,2012-11-14 23:53:00
7:53 PM,50.0,34.0,54,30.30,10.0,ENE,4.6,-,N/A,,Overcast,60,2012-11-15 00:53:00
8:53 PM,50.0,35.1,57,30.31,10.0,NNE,3.5,-,N/A,,Overcast,20,2012-11-15 01:53:00
9:53 PM,48.9,36.0,61,30.32,10.0,ESE,9.2,-,0.00,,Overcast,110,2012-11-15 02:53:00
10:00 PM,48.2,35.6,62,30.31,10.0,East,8.1,-,N/A,,Overcast,90,2012-11-15 03:00:00
10:23 PM,46.4,39.2,76,30.30,10.0,East,8.1,-,0.00,Rain,Light Rain,90,2012-11-15 03:23:00
10:53 PM,44.1,42.1,93,30.30,4.0,NE,6.9,-,0.03,Rain,Light Rain,50,2012-11-15 03:53:00
11:38 PM,44.6,41.0,87,30.30,10.0,Variable,4.6,-,0.00,,Overcast,0,2012-11-15 04:38:00
11:53 PM,44.1,41.0,89,30.30,10.0,North,3.5,-,0.00,,Overcast,10,2012-11-15 04:53:00